Flag for Germany Weather past 2 weeks in Herten, North Rhine-Westphalia, Germany

Now
48 °F

Overcast.


Feels Like: 48 °F
Forecast: 50 / 60 °F
Wind: 2 mph from West

Location: Essen

Current Time: Sep 23, 2014 at 6:34:51 AM

Latest Report: Sep 23, 2014 at 6:00 AM


Visibility: 5 mi

Pressure: 30.17 "Hg

Humidity: 93%

Dew point: 46 °F

Location of HertenLocation

Historic Weather in Herten — Graph

°F

Herten temperature yesterday

Maximum temperature yesterday: 59 °F (at 5:00 PM)
Minimum temperature yesterday: 51 °F (at 2:00 PM)
Average temperature yesterday: 54 °F

Past Weeks' High & Low Weather Summary

 TemperatureHumidityPressure
High77 °F (Sep 17, 4:00 PM)100% (Sep 14, 6:00 AM)30.25 "Hg (Sep 14, 6:00 AM)
Low48 °F (Sep 23, 5:00 AM)49% (Sep 17, 6:00 PM)29.82 "Hg (Sep 19, 5:00 AM)
Average61 °F81%30.04 "Hg
* Reported Sep 8 5:00 AM — Sep 23 5:00 AM, Herten, Weather by CustomWeather, © 2014

Note: Actual official high and low records may vary slightly from our data, if they occured in-between our weather recording intervals... More about our weather records

Advertising

Herten weather history for previous 24 hours

 ConditionsComfort  
Time TempWeatherWind HumidityBarometerVisibility
5:00 AM
Sep 23
48 °FPassing clouds.2 mph92%30.16 "Hg6 mi
4:00 AM49 °FOvercast.1 mph89%30.18 "Hg7 mi
3:00 AM48 °FOvercast.2 mph91%30.18 "Hg7 mi
2:00 AM49 °FOvercast.1 mph90%30.19 "Hg8 mi
1:00 AM50 °FPassing clouds.1 mph89%30.19 "Hg9 mi
12:00 AM49 °FPassing clouds.1 mph90%30.19 "Hg10 mi
11:00 PM
Sep 22
51 °FClear.2 mph82%30.19 "Hg12 mi
10:00 PM54 °FOvercast.3 mph76%30.17 "Hg14 mi
9:00 PM54 °FClear.5 mph75%30.16 "Hg14 mi
8:00 PM56 °FClear.3 mph68%30.14 "Hg19 mi
7:00 PM58 °FScattered clouds.5 mph62%30.12 "Hg19 mi
6:00 PM58 °FSunny.5 mph64%30.11 "Hg14 mi
5:00 PM59 °FScattered clouds.6 mph59%30.10 "Hg19 mi
4:00 PM58 °FPartly sunny.5 mph63%30.10 "Hg19 mi
3:00 PM56 °FSunny.6 mph69%30.10 "Hg14 mi
2:00 PM51 °FLow clouds.5 mph85%30.11 "Hg22 mi
1:00 PM54 °FLow clouds.7 mph83%30.09 "Hg6 mi
12:00 PM57 °FOvercast.3 mph70%30.07 "Hg9 mi
11:00 AM55 °FOvercast.5 mph74%30.09 "Hg7 mi
10:00 AM54 °FLow clouds.3 mph81%30.09 "Hg5 mi
9:00 AM54 °FLow clouds.3 mph78%30.09 "Hg5 mi
8:00 AM53 °FOvercast.2 mph79%30.10 "Hg5 mi
7:00 AM53 °FFog.2 mph84%30.10 "Hg4 mi
6:00 AM51 °FFog.2 mph92%30.11 "Hg4 mi
Weather by CustomWeather, © 2014

See weather overviewHow to use our weather pages